Hourly Data Report for November 21, 2017

All times are specified in Local Standard Time (LST). Add 1 hour to adjust for Daylight Saving Time where and when it is observed.

GREENWOOD A
NOVA SCOTIA

44°59'00.000" N
64°55'00.000" W
28.00 m
8202000
71397
YZX

Download Data

Hourly Data (November 2017)
Hourly Data Report for November 21, 2017
Temp Definition
°C
Dew Point Temp Definition
°C
Rel Hum Definition
%
Wind Dir Definition
10's deg

Wind Spd Definition
km/h
Visibility Definition
km
Stn Press Definition
kPa
Hmdx Definition


Wind Chill Definition


Weather Definition


TIME
00:00 -3.0 -9.2 62 27 35 19.3 100.83   -11 Snow Showers
01:00 -3.7 -9.0 67 28 28 19.3 100.94   -11 Snow Showers
02:00 -4.2 -8.3 73 29 26 19.3 101.01   -11 Snow Showers
03:00 -4.0 -7.6 76 28 28 19.3 101.18   -11 Snow Showers
04:00 -4.0 -7.6 76 27 33 24.1 101.25   -12 Mostly Cloudy
05:00 -4.2 -7.2 80 27 22 16.1 101.36   -11 Snow Showers
06:00 -4.6 -7.7 79 27 24 16.1 101.43   -12 Snow Showers
07:00 -4.7 -8.5 75 27 26 24.1 101.55   -12 Mostly Cloudy
08:00 -4.6 -9.2 70 27 24 24.1 101.60   -12 Mostly Cloudy
09:00 -3.4 -8.6 67 26 22 24.1 101.68   -10 Mostly Cloudy
10:00 -2.5 -6.4 75 26 19 24.1 101.73   -8 Mainly Clear
11:00 -1.2 -4.4 79 26 30 24.1 101.77   -8 Mainly Clear
12:00 0.5 -4.9 67 24 13 24.1 101.74     Mainly Clear
13:00 1.5 -3.2 71 23 11 24.1 101.65     Mainly Clear
14:00 5.0 -1.8 61 23 7 24.1 101.57     Clear
15:00 6.6 -1.5 56 21 11 24.1 101.53     Mainly Clear
16:00 5.7 -0.7 63 18 13 24.1 101.56     Mainly Clear
17:00 5.0 -0.7 67 22 7 24.1 101.54     Mainly Clear
18:00 5.0 0.4 72 18 6 24.1 101.57     Mainly Clear
19:00 4.4 0.7 77 19 9 24.1 101.58     Clear
20:00 2.9 0.5 84 26 11 24.1 101.55     Clear
21:00 4.3 2.3 87 29 7 24.1 101.50     Mainly Clear
22:00 6.2 4.1 86 24 6 24.1 101.48     Mostly Cloudy
23:00 7.7 5.5 86 23 17 24.1 101.46     Mostly Cloudy

Notes on Data Quality.

Legend

  • E = Estimated
  • M = Missing
  • NA = Not Available
  • ‡ = Partner data that is not subject to review by the National Climate Archives
Date modified: